Weather History for Bullhead City, AZ

Change the Weather History Date:

Saturday, November 23, 2013

  Actual Average Record
Temperature  
Mean Temperature 52 °F -  
Max Temperature 55 °F 67 °F 84 °F (2001)
Min Temperature 48 °F 49 °F 37 °F (1988)
Degree Days  
Heating Degree Days 14    
Growing Degree Days 2 (Base 50)    
Moisture  
Dew Point 44 °F    
Average Humidity 74    
Maximum Humidity 87    
Minimum Humidity 62    
Precipitation  
Precipitation 0.10 in - - ()
Sea Level Pressure  
Sea Level Pressure 30.06 in    
Wind  
Wind Speed 13 mph (NNE)    
Max Wind Speed 21 mph    
Max Gust Speed 25 mph    
Visibility 10 miles    
Events      
Averages and records for this station are not official NWS values.
T = Trace of Precipitation, MM = Missing Value Source: NWS Daily Summary

Daily Weather History Graph

Daily Weather History Graph

Search for Another Location

Airport:

Trip Planner

Search our weather history database for the weather conditions in past years. The results will help you decide how hot, cold, wet, or windy it might be!

Date:

Astronomy

Nov. 23, 2013 Rise Set
Actual Time 7:21 AM MST 5:28 PM MST
Civil Twilight 6:53 AM MST 5:55 PM MST
Nautical Twilight 6:22 AM MST 6:26 PM MST
Astronomical Twilight 5:52 AM MST 6:56 PM MST
Moon 10:55 PM MST (11/23) 11:44 AM MST (11/23)
Length of Visible Light 11h 01m
Length of Day
10h 07m
Waning Gibbous, 69% of the Moon is Illuminated
Nov 23
Waning Gibbous
Nov 25
Last Quarter
Dec 2
New
Dec 9
First Quarter
Dec 17
Full

Hourly Weather History & Observations

Time (MST) Temp. Dew Point Humidity Pressure Visibility Wind Dir Wind Speed Gust Speed Precip Events Conditions
12:15 AM 51.8 °F 41.0 °F 67% 30.01 in 10.0 mi NNE 15.0 mph 20.7 mph N/A   Overcast
12:35 AM 51.8 °F 41.0 °F 67% 30.00 in 10.0 mi NNE 13.8 mph - N/A   Overcast
12:55 AM 53.6 °F 41.0 °F 62% 29.99 in 10.0 mi NNE 13.8 mph 20.7 mph N/A   Overcast
1:15 AM 53.6 °F 41.0 °F 62% 29.98 in 10.0 mi NNE 16.1 mph 21.9 mph N/A   Overcast
1:35 AM 53.6 °F 41.0 °F 62% 29.99 in 10.0 mi North 20.7 mph 25.3 mph N/A   Overcast
1:55 AM 53.6 °F 41.0 °F 62% 30.00 in 10.0 mi NNE 13.8 mph 20.7 mph N/A   Overcast
2:15 AM 51.8 °F 42.8 °F 71% 30.01 in 9.0 mi NNE 15.0 mph 20.7 mph N/A   Overcast
2:35 AM 50.0 °F 44.6 °F 82% 30.01 in 10.0 mi North 16.1 mph 21.9 mph N/A   Overcast
2:55 AM 50.0 °F 44.6 °F 82% 30.01 in 10.0 mi NNE 15.0 mph 20.7 mph N/A   Overcast
3:15 AM 50.0 °F 42.8 °F 76% 30.01 in 10.0 mi NNE 12.7 mph 19.6 mph N/A   Mostly Cloudy
3:35 AM 50.0 °F 42.8 °F 76% 30.01 in 10.0 mi NNE 10.4 mph - N/A   Overcast
3:55 AM 50.0 °F 44.6 °F 82% 30.02 in 9.0 mi NE 11.5 mph - N/A   Overcast
4:15 AM 50.0 °F 44.6 °F 82% 30.03 in 4.0 mi NE 10.4 mph - 0.02 in   Overcast
4:35 AM 48.2 °F 44.6 °F 87% 30.03 in 5.0 mi NNE 8.1 mph - 0.05 in   Overcast
4:55 AM 48.2 °F 44.6 °F 87% 30.03 in 5.0 mi NNE 8.1 mph - 0.07 in   Overcast
5:15 AM 48.2 °F 44.6 °F 87% 30.03 in 7.0 mi NE 9.2 mph - 0.01 in   Overcast
5:35 AM 48.2 °F 44.6 °F 87% 30.03 in 10.0 mi NNE 12.7 mph - 0.01 in   Overcast
5:55 AM 48.2 °F 44.6 °F 87% 30.03 in 10.0 mi NNE 12.7 mph - 0.01 in   Mostly Cloudy
6:15 AM 48.2 °F 44.6 °F 87% 30.03 in 10.0 mi NNE 13.8 mph - N/A   Mostly Cloudy
6:35 AM 50.0 °F 44.6 °F 82% 30.04 in 10.0 mi NE 12.7 mph - N/A   Overcast
6:55 AM 50.0 °F 44.6 °F 82% 30.04 in 10.0 mi NE 11.5 mph - N/A   Overcast
7:15 AM 50.0 °F 44.6 °F 82% 30.05 in 10.0 mi NE 10.4 mph - N/A   Overcast
7:35 AM 50.0 °F 44.6 °F 82% 30.05 in 10.0 mi NE 9.2 mph - N/A   Overcast
7:55 AM 50.0 °F 44.6 °F 82% 30.06 in 10.0 mi NE 6.9 mph - N/A   Overcast
8:15 AM 50.0 °F 44.6 °F 82% 30.06 in 10.0 mi NE 6.9 mph - N/A   Overcast
8:35 AM 50.0 °F 44.6 °F 82% 30.06 in 10.0 mi NE 8.1 mph - N/A   Overcast
8:55 AM 51.8 °F 44.6 °F 76% 30.07 in 10.0 mi NE 9.2 mph - N/A   Overcast
9:15 AM 51.8 °F 44.6 °F 76% 30.07 in 10.0 mi NNE 9.2 mph - N/A   Overcast
9:35 AM 51.8 °F 44.6 °F 76% 30.07 in 10.0 mi NNE 9.2 mph - N/A   Mostly Cloudy
9:55 AM 51.8 °F 46.4 °F 82% 30.08 in 7.0 mi NNE 12.7 mph - 0.01 in   Overcast
10:15 AM 51.8 °F 46.4 °F 82% 30.08 in 10.0 mi NNE 10.4 mph - N/A   Overcast
10:35 AM 51.8 °F 46.4 °F 82% 30.08 in 9.0 mi NNE 12.7 mph - 0.01 in   Overcast
10:55 AM 51.8 °F 46.4 °F 82% 30.08 in 10.0 mi NNE 11.5 mph - 0.01 in   Overcast
11:15 AM 53.6 °F 46.4 °F 77% 30.08 in 10.0 mi NNE 11.5 mph - N/A   Overcast
11:35 AM 53.6 °F 46.4 °F 77% 30.08 in 10.0 mi NNE 9.2 mph - N/A   Overcast
11:55 AM 53.6 °F 46.4 °F 77% 30.07 in 10.0 mi NE 12.7 mph - N/A   Overcast
12:15 PM 53.6 °F 46.4 °F 77% 30.07 in 10.0 mi NNE 10.4 mph - N/A   Overcast
12:35 PM 55.4 °F 46.4 °F 72% 30.06 in 10.0 mi NE 11.5 mph - N/A   Overcast
12:55 PM 55.4 °F 46.4 °F 72% 30.06 in 10.0 mi NNE 9.2 mph - N/A   Overcast
1:15 PM 55.4 °F 46.4 °F 72% 30.06 in 10.0 mi NNE 10.4 mph - N/A   Overcast
1:35 PM 55.4 °F 46.4 °F 72% 30.05 in 10.0 mi NNE 13.8 mph 17.3 mph N/A   Mostly Cloudy
1:55 PM 55.4 °F 46.4 °F 72% 30.05 in 10.0 mi NNE 15.0 mph 19.6 mph N/A   Overcast
2:15 PM 53.6 °F 46.4 °F 77% 30.05 in 10.0 mi NNE 15.0 mph - N/A   Mostly Cloudy
2:35 PM 53.6 °F 46.4 °F 77% 30.05 in 10.0 mi North 16.1 mph - N/A   Mostly Cloudy
2:55 PM 53.6 °F 46.4 °F 77% 30.05 in 10.0 mi NNE 17.3 mph - N/A   Mostly Cloudy
3:15 PM 53.6 °F 46.4 °F 77% 30.05 in 10.0 mi NNE 15.0 mph 21.9 mph N/A   Mostly Cloudy
3:35 PM 53.6 °F 46.4 °F 77% 30.05 in 10.0 mi North 15.0 mph 19.6 mph N/A   Overcast
3:55 PM 53.6 °F 46.4 °F 77% 30.05 in 10.0 mi NNE 15.0 mph - N/A   Overcast
4:15 PM 53.6 °F 46.4 °F 77% 30.05 in 10.0 mi NNE 16.1 mph 20.7 mph N/A   Overcast
4:35 PM 53.6 °F 44.6 °F 72% 30.06 in 10.0 mi NNE 18.4 mph - N/A   Mostly Cloudy
4:55 PM 53.6 °F 44.6 °F 72% 30.06 in 10.0 mi North 16.1 mph - N/A   Overcast
5:15 PM 53.6 °F 44.6 °F 72% 30.06 in 10.0 mi NNE 11.5 mph - N/A   Overcast
5:35 PM 53.6 °F 44.6 °F 72% 30.06 in 10.0 mi NNE 13.8 mph 21.9 mph N/A   Overcast
5:55 PM 53.6 °F 44.6 °F 72% 30.07 in 10.0 mi NNE 16.1 mph 20.7 mph N/A   Overcast
6:15 PM 53.6 °F 44.6 °F 72% 30.07 in 10.0 mi North 17.3 mph 24.2 mph N/A   Overcast
6:35 PM 53.6 °F 44.6 °F 72% 30.07 in 10.0 mi NNE 17.3 mph 24.2 mph N/A   Scattered Clouds
6:55 PM 53.6 °F 44.6 °F 72% 30.08 in 10.0 mi North 16.1 mph - N/A   Mostly Cloudy
7:15 PM 53.6 °F 44.6 °F 72% 30.09 in 10.0 mi NNE 16.1 mph 23.0 mph N/A   Overcast
7:35 PM 53.6 °F 42.8 °F 67% 30.09 in 10.0 mi North 17.3 mph 24.2 mph N/A   Overcast
7:55 PM 53.6 °F 42.8 °F 67% 30.10 in 10.0 mi NNE 17.3 mph 24.2 mph N/A   Overcast
8:15 PM 53.6 °F 42.8 °F 67% 30.10 in 10.0 mi NNE 16.1 mph - N/A   Overcast
8:35 PM 53.6 °F 42.8 °F 67% 30.10 in 10.0 mi North 17.3 mph - N/A   Overcast
8:55 PM 53.6 °F 42.8 °F 67% 30.10 in 10.0 mi NNE 15.0 mph - N/A   Overcast
9:15 PM 53.6 °F 42.8 °F 67% 30.11 in 10.0 mi North 12.7 mph - N/A   Overcast
9:35 PM 53.6 °F 42.8 °F 67% 30.11 in 10.0 mi NNE 15.0 mph - N/A   Overcast
9:55 PM 53.6 °F 41.0 °F 62% 30.12 in 10.0 mi NNE 13.8 mph - N/A   Overcast
10:15 PM 53.6 °F 41.0 °F 62% 30.12 in 10.0 mi NNE 12.7 mph - N/A   Overcast
10:35 PM 53.6 °F 41.0 °F 62% 30.12 in 10.0 mi NNE 15.0 mph 21.9 mph N/A   Overcast
10:55 PM 53.6 °F 42.8 °F 67% 30.12 in 10.0 mi NNE 17.3 mph - N/A   Overcast
11:15 PM 53.6 °F 42.8 °F 67% 30.13 in 10.0 mi NNE 15.0 mph - N/A   Overcast
11:35 PM 53.6 °F 42.8 °F 67% 30.13 in 10.0 mi NNE 17.3 mph 21.9 mph N/A   Overcast
11:55 PM 53.6 °F 42.8 °F 67% 30.13 in 10.0 mi NNE 12.7 mph - N/A   Overcast